Track STARLINK-2147 now! 10-day predictions STARLINK-2147 is classified as:
1 47736U 21017Q 21110.91667824 .00032398 00000-0 23426-3 0 9991 2 47736 53.0460 307.5088 0001346 64.4842 56.4932 15.73206560 8125